DW3384 Weather Reports


Display with metric or nautical units.
time (UTC)temp
F
wind
direction
speed
MPH
gust
MPH
rain 1hr
in
rain 24hr
in
rain mn
in
humidity
%
barometer
mb
20260903083059 81 150 11.0 17.0 0.00 0.00 0.00 55 1003.4
20260903081557 81 159 10.0 25.0 0.00 0.00 0.00 54 1003.5
20260903080058 81 164 8.0 20.0 0.00 0.00 0.00 54 1003.7
20260903074552 81 183 8.0 16.0 0.00 0.00 0.00 53 1003.8
20260903073051 82 131 6.0 13.0 0.00 0.00 0.00 53 1003.8
20260903071548 82 105 7.0 16.0 0.00 0.00 0.00 52 1003.8
20260903070048 82 142 6.0 15.0 0.00 0.00 0.00 51 1003.7
20260903064546 82 185 6.0 13.0 0.00 0.00 0.00 51 1003.8
20260903063044 82 71 6.0 17.0 0.00 0.00 0.00 51 1003.7
20260903061552 82 171 7.0 18.0 0.00 0.00 0.00 50 1003.6
20260903060042 82 148 9.0 15.0 0.00 0.00 0.00 49 1003.6
20260903054541 83 78 7.0 15.0 0.00 0.00 0.00 48 1003.5
20260903053038 83 136 7.0 16.0 0.00 0.00 0.00 47 1003.5
20260903051535 84 148 8.0 13.0 0.00 0.00 0.00 45 1003.4
20260903050034 84 132 6.0 11.0 0.00 0.00 0.00 44 1003.4
20260903043011 85 126 8.0 16.0 0.00 0.00 0.00 42 1003.2
20260903041511 86 134 8.0 17.0 0.00 0.00 0.00 42 1003.1
20260903040010 86 126 8.0 17.0 0.00 0.00 0.00 41 1003.3
20260903034509 86 156 6.0 16.0 0.00 0.00 0.00 41 1003.1
20260903033009 86 148 7.0 16.0 0.00 0.00 0.00 40 1003.2
20260903031509 86 128 5.0 14.0 0.00 0.00 0.00 40 1003.1
20260903030011 86 115 7.0 14.0 0.00 0.00 0.00 40 1002.9
20260903024507 87 103 7.0 14.0 0.00 0.00 0.00 40 1002.7
20260903023007 87 109 7.0 13.0 0.00 0.00 0.00 39 1002.5
20260903021508 88 124 5.0 10.0 0.00 0.00 0.00 38 1002.4
20260903020006 89 186 6.0 13.0 0.00 0.00 0.00 37 1002.2
20260903014504 89 161 7.0 12.0 0.00 0.00 0.00 36 1002.1
20260903013004 90 128 6.0 12.0 0.00 0.00 0.00 36 1001.9
20260903011504 91 173 6.0 10.0 0.00 0.00 0.00 36 1001.8
20260903010003 91 130 6.0 12.0 0.00 0.00 0.00 35 1001.9
20260903004503 92 135 5.0 15.0 0.00 0.00 0.00 34 1001.9
20260903003003 93 156 5.0 11.0 0.00 0.00 0.00 31 1001.8
20260903001502 94 157 5.0 11.0 0.00 0.00 0.00 30 1002.0
20260903000001 95 140 5.0 12.0 0.00 0.00 0.00 29 1002.0
20260902234502 95 188 7.0 11.0 0.00 0.00 0.00 29 1001.9
20260902233100 97 135 5.0 14.0 0.00 0.00 0.00 29 1001.8
20260902233003 97 198 6.0 14.0 0.00 0.00 0.00 28 1001.9
20260902231602 97 164 7.0 16.0 0.00 0.00 0.00 29 1001.9
20260902230059 97 179 7.0 15.0 0.00 0.00 0.00 28 1002.1
20260902224558 97 198 5.0 14.0 0.00 0.00 0.00 29 1002.1
20260902223105 98 142 7.0 13.0 0.00 0.00 0.00 28 1002.1
20260902221557 98 226 7.0 12.0 0.00 0.00 0.00 27 1002.2
20260902220056 99 175 6.0 15.0 0.00 0.00 0.00 27 1002.1
20260902214555 99 92 4.0 11.0 0.00 0.00 0.00 28 1002.0
20260902213052 99 170 6.0 15.0 0.00 0.00 0.00 27 1002.3
20260902211552 99 91 6.0 12.0 0.00 0.00 0.00 27 1002.5
20260902210048 99 160 2.0 12.0 0.00 0.00 0.00 26 1002.7
20260902204547 99 144 4.0 11.0 0.00 0.00 0.00 26 1003.0
20260902203040 99 236 5.0 19.0 0.00 0.00 0.00 27 1003.3
20260902201545 98 213 5.0 12.0 0.00 0.00 0.00 27 1003.5
20260902200035 98 168 7.0 16.0 0.00 0.00 0.00 28 1003.7
20260902194532 97 179 6.0 13.0 0.00 0.00 0.00 29 1004.0
20260902193030 98 224 4.0 11.0 0.00 0.00 0.00 28 1004.1
20260902191529 97 142 3.0 12.0 0.00 0.00 0.00 28 1004.4
20260902190027 96 161 5.0 14.0 0.00 0.00 0.00 30 1004.7
20260902184521 96 234 4.0 12.0 0.00 0.00 0.00 30 1004.9
20260902183022 95 211 3.0 12.0 0.00 0.00 0.00 32 1005.1
20260902181516 95 258 8.0 15.0 0.00 0.00 0.00 31 1005.5
20260902180012 95 160 5.0 12.0 0.00 0.00 0.00 33 1005.7
20260902174510 94 246 4.0 14.0 0.00 0.00 0.00 36 1005.9
20260902173009 94 227 4.0 11.0 0.00 0.00 0.00 37 1006.2
20260902171505 93 218 4.0 10.0 0.00 0.00 0.00 38 1006.4
20260902170002 92 235 7.0 13.0 0.00 0.00 0.00 39 1006.5
20260902164600 91 219 6.0 14.0 0.00 0.00 0.00 40 1006.6
20260902163057 90 209 5.0 12.0 0.00 0.00 0.00 40 1006.7
20260902161554 89 211 5.0 12.0 0.00 0.00 0.00 41 1006.8
20260902160107 88 228 7.0 12.0 0.00 0.00 0.00 41 1006.8
20260902154555 87 209 5.0 14.0 0.00 0.00 0.00 43 1006.8
20260902153044 86 233 4.0 12.0 0.00 0.00 0.00 46 1006.9
20260902151540 85 210 4.0 10.0 0.00 0.00 0.00 47 1007.0
20260902150038 83 244 3.0 8.0 0.00 0.00 0.00 49 1006.9
20260902144538 82 209 5.0 10.0 0.00 0.00 0.00 50 1006.9
20260902143035 82 211 4.0 8.0 0.00 0.00 0.00 51 1006.9
20260902141532 80 239 1.0 4.0 0.00 0.00 0.00 54 1007.0
20260902140036 79 187 1.0 5.0 0.00 0.00 0.00 56 1007.0
20260902134530 78 218 2.0 7.0 0.00 0.00 0.00 57 1007.1
20260902133028 77 96 1.0 4.0 0.00 0.00 0.00 60 1006.9
20260902131525 76 186 1.0 5.0 0.00 0.00 0.00 61 1006.7
20260902130023 75 202 1.0 3.0 0.00 0.00 0.00 61 1006.7
20260902124522 74 191 2.0 6.0 0.00 0.00 0.00 62 1006.5
20260902123026 74 67 3.0 5.0 0.00 0.00 0.00 62 1006.4
20260902121519 74 50 2.0 4.0 0.00 0.00 0.00 62 1006.3
20260902120014 76 355 1.0 4.0 0.00 0.00 0.00 58 1006.2
20260902114512 77 228 2.0 10.0 0.00 0.00 0.00 56 1006.0
20260902113010 77 193 7.0 14.0 0.00 0.00 0.00 56 1005.8
20260902111525 77 181 9.0 17.0 0.00 0.00 0.00 55 1005.7
20260902110022 78 212 10.0 19.0 0.00 0.00 0.00 55 1005.6
20260902104506 78 187 10.0 24.0 0.00 0.00 0.00 54 1005.8
20260902103003 78 136 11.0 18.0 0.00 0.00 0.00 54 1005.8
20260902101502 78 173 9.0 17.0 0.00 0.00 0.00 54 1005.8
20260902100059 78 182 10.0 19.0 0.00 0.00 0.00 53 1005.8
20260902094557 78 173 12.0 20.0 0.00 0.00 0.00 53 1005.8
20260902093054 78 178 10.0 19.0 0.00 0.00 0.00 52 1005.9
20260902091558 79 203 10.0 19.0 0.00 0.00 0.00 52 1005.9
20260902090048 79 184 9.0 21.0 0.00 0.00 0.00 51 1006.0
20260902084550 79 161 10.0 19.0 0.00 0.00 0.00 50 1005.9